Tracking 28052 objects as of 23-Sep-2023
HD Live streaming from Space Station
objects crossing your sky now

FREGAT R/B

Track FREGAT R/B now!
10-day predictions


NORAD ID: 40352
Int'l Code: 2014-083E
Perigee: 7,678.5 km
Apogee: 7,702.2 km
Inclination: 0.1 °
Period: 276.6 minutes
Semi major axis: 14061 km
RCS: Unknown
Launch date: December 18, 2014
Source: Commonwealth of Independent States (former USSR) (CIS)
Launch site: FRENCH GUIANA (FRGUI)

Note: This is a ROCKET BODY
Your satellite tracking list
Your tracking list is empty




NASA's NSSDC Master Catalog

Two Line Element Set (TLE):
1 40352U 14083E   23265.15293519 -.00000013  00000-0  00000-0 0  9998
2 40352   0.1180  29.3987 0008428  92.8221 237.8654  5.20671809166657
Source of the keplerian elements: AFSPC